Warning: Javascript must be enabled to use all the features on this page!


Page Loading - Please Wait...

Click to hideNews Bulletins
Click to hide state-specific text

USGS 05082500 RED RIVER OF THE NORTH AT GRAND FORKS, ND

PROVISIONAL DATA SUBJECT TO REVISION

Click to hidestation-specific text
USGS North Dakota Water Science Center Celebrating Over 100 Years of Streamgage Records
 

Water Quality data provided in cooperation with the North Dakota Department of Health, the cities of Grand Forks and East Grand Forks, and the Minnesota Pollution Control Agency.

Gage height and discharge data provided in cooperation with the following:


USGS Federal Priority Streamgage (fomerly NSIP)

Station 05082500 Gage Height History Write-up



Webcam near Sorlie Bridge
Red River at Sorlie Bridge in Grand Forks
Image is updated daily. Click to view older photos.
Temperature is displayed in kelvin (K). Time is displayed in GMT.
This station managed by the Grand Forks Field Office.

Available Parameters Available Period
All 7 Available Parameters for this site
  
00010 Temperature, water 2007-10-01  2018-01-16
00060 Discharge 1994-10-01  2018-01-03
00065 Gage height [Bubbler] 2007-10-01  2018-01-16
00095 Specific cond at 25C 2007-10-01  2018-01-16
00300 Dissolved oxygen 2007-10-01  2018-01-16
00400 pH 2007-10-01  2018-01-16
63680 Turbidity, Form Neph 2007-10-01  2018-01-16

Graph
Graph w/ stats
Graph w/o stats
Graph w/ (up to 3) parms
Table
Tab-separated
Days  (7)
 

  -- or --
Begin date
 

End date
 

Summary of all available data for this site
Instantaneous-data availability statement
Gage height, feet, [Bubbler]
TIMEJan 9Jan 10Jan 11Jan 12Jan 13Jan 14Jan 15Jan 16
00:00 CST15.77P  15.77P  15.78P  15.80P  15.81P  15.81P  15.81P  15.84P  
00:15 CST15.77P  15.77P  15.78P  15.80P  15.81P  15.82P  15.81P  15.81P  
00:30 CST15.77P  15.78P  15.78P  15.80P  15.82P  15.81P  15.82P  15.83P  
00:45 CST15.77P  15.77P  15.78P  15.80P  15.82P  15.82P  15.83P  15.83P  
01:00 CST15.77P  15.78P  15.78P  15.80P  15.82P  15.81P  15.81P  15.83P  
01:15 CST15.77P  15.77P  15.80P  15.80P  15.82P  15.82P  15.81P  15.84P  
01:30 CST15.77P  15.77P  15.78P  15.80P  15.82P  15.81P  15.83P  15.83P  
01:45 CST15.77P  15.77P  15.78P  15.78P  15.82P  15.81P  15.82P  15.83P  
02:00 CST15.77P  15.77P  15.78P  15.80P  15.82P  15.82P  15.83P  15.83P  
02:15 CST15.77P  15.78P  15.77P  15.80P  15.82P  15.81P  15.82P  15.84P  
02:30 CST15.77P  15.78P  15.79P  15.80P  15.82P  15.81P  15.82P  15.83P  
02:45 CST15.77P  15.77P  15.79P  15.80P  15.82P  15.81P  15.81P  15.83P  
03:00 CST15.77P  15.78P  15.78P  15.79P  15.82P  15.82P  15.82P  15.84P  
03:15 CST15.77P  15.78P  15.78P  15.80P  15.83P  15.82P  15.83P  15.84P  
03:30 CST15.77P  15.77P  15.77P  15.80P  15.83P  15.81P  15.81P  15.83P  
03:45 CST15.77P  15.77P  15.77P  15.80P  15.82P  15.82P  15.81P  15.84P  
04:00 CST15.77P  15.78P  15.78P  15.80P  15.82P  15.82P  15.80P  15.83P  
04:15 CST15.77P  15.78P  15.78P  15.80P  15.82P  15.81P  15.80P  15.84P  
04:30 CST15.77P  15.77P  15.77P  15.80P  15.82P  15.81P  15.83P  15.82P  
04:45 CST15.77P  15.78P  15.79P  15.80P  15.82P  15.81P  15.82P  15.83P  
05:00 CST15.77P  15.77P  15.78P  15.80P  15.82P  15.82P  15.81P  15.84P  
05:15 CST15.76P  15.77P  15.78P  15.80P  15.82P  15.81P  15.83P  15.83P  
05:30 CST15.77P  15.78P  15.78P  15.78P  15.82P  15.82P  15.82P  15.83P  
05:45 CST15.77P  15.77P  15.77P  15.80P  15.80P  15.82P  15.81P  15.84P  
06:00 CST15.77P  15.78P  15.76P  15.79P  15.82P  15.82P  15.82P  15.83P  
06:15 CST15.77P  15.77P  15.77P  15.80P  15.82P  15.82P  15.82P  15.84P  
06:30 CST15.77P  15.77P  15.78P  15.80P  15.82P  15.82P  15.83P  15.83P  
06:45 CST15.76P  15.78P  15.77P  15.80P  15.82P  15.82P  15.82P  15.84P  
07:00 CST15.77P  15.77P  15.76P  15.80P  15.82P  15.82P  15.83P  15.83P  
07:15 CST15.77P  15.78P  15.78P  15.80P  15.82P  15.82P  15.83P  15.81P  
07:30 CST15.76P  15.78P  15.78P  15.80P  15.82P  15.83P  15.83P  15.83P  
07:45 CST15.76P  15.77P  15.77P  15.80P  15.82P  15.82P  15.82P  15.83P  
08:00 CST15.76P  15.78P  15.76P  15.80P  15.82P  15.82P  15.83P  15.83P  
08:15 CST15.76P  15.77P  15.77P  15.80P  15.82P  15.83P  15.82P  15.83P  
08:30 CST15.77P  15.77P  15.77P  15.81P  15.82P  15.82P  15.83P  15.83P  
08:45 CST15.76P  15.78P  15.77P  15.80P  15.82P  15.83P  15.82P  15.83P  
09:00 CST15.77P  15.77P  15.79P  15.80P  15.79P  15.83P  15.82P  15.83P  
09:15 CST15.76P  15.77P  15.78P  15.80P  15.82P  15.83P  15.82P  15.83P  
09:30 CST15.76P  15.77P  15.77P  15.80P  15.80P  15.83P  15.82P  15.83P  
09:45 CST15.76P  15.77P  15.78P  15.80P  15.82P  15.83P  15.83P  15.83P  
10:00 CST15.76P  15.77P  15.78P  15.80P  15.82P  15.82P  15.83P  15.83P  
10:15 CST15.77P  15.77P  15.78P  15.80P  15.81P  15.83P  15.83P  15.83P  
10:30 CST15.76P  15.77P  15.77P  15.80P  15.82P  15.83P  15.81P  15.83P  
10:45 CST15.77P  15.77P  15.78P  15.80P  15.81P  15.82P  15.83P  15.83P  
11:00 CST15.76P  15.76P  15.81P  15.80P  15.81P  15.83P  15.83P  15.84P  
11:15 CST15.76P  15.77P  15.79P  15.80P  15.81P  15.83P  15.82P  15.83P  
11:30 CST15.76P  15.77P  15.78P  15.80P  15.82P  15.82P  15.84P  15.83P  
11:45 CST15.76P  15.77P  15.78P  15.80P  15.82P  15.83P  15.82P  15.83P  
12:00 CST15.76P  15.76P  15.78P  15.79P  15.82P  15.83P  15.82P  15.83P  
12:15 CST15.76P  15.76P  15.79P  15.79P  15.81P  15.83P  15.82P  15.83P  
12:30 CST15.76P  15.77P  15.80P  15.79P  15.82P  15.82P  15.83P  15.83P  
12:45 CST15.77P  15.77P  15.78P  15.80P  15.81P  15.83P  15.82P  15.83P  
13:00 CST15.76P  15.78P  15.79P  15.80P  15.82P  15.84P  15.81P  15.83P  
13:15 CST15.76P  15.76P  15.80P  15.80P  15.82P  15.83P  15.81P  15.83P  
13:30 CST15.77P  15.77P  15.78P  15.80P  15.82P  15.84P  15.82P  15.83P  
13:45 CST15.77P  15.78P  15.79P  15.80P  15.82P  15.83P  15.83P  15.83P  
14:00 CST15.76P  15.79P  15.79P  15.80P  15.82P  15.82P  15.83P  15.83P  
14:15 CST15.77P  15.77P  15.80P  15.80P  15.82P  15.83P  15.83P  15.83P  
14:30 CST15.76P  15.77P  15.79P  15.80P  15.82P  15.84P  15.83P  15.83P  
14:45 CST15.77P  15.77P  15.80P  15.80P  15.82P  15.84P  15.83P  15.83P  
15:00 CST15.76P  15.77P  15.80P  15.80P  15.82P  15.83P  15.83P  15.84P  
15:15 CST15.77P  15.79P  15.79P  15.80P  15.82P  15.84P  15.82P  15.83P  
15:30 CST15.76P  15.77P  15.78P  15.81P  15.82P  15.83P  15.84P  15.83P  
15:45 CST15.76P  15.77P  15.80P  15.80P  15.82P  15.84P  15.83P  15.83P  
16:00 CST15.76P  15.78P  15.81P  15.81P  15.82P  15.83P  15.83P   
16:15 CST15.76P  15.78P  15.79P  15.80P  15.82P  15.83P  15.83P   
16:30 CST15.76P  15.77P  15.80P  15.80P  15.82P  15.83P  15.83P   
16:45 CST15.77P  15.78P  15.80P  15.80P  15.82P  15.84P  15.83P   
17:00 CST15.77P  15.77P  15.80P  15.80P  15.82P  15.83P  15.84P   
17:15 CST15.77P  15.77P  15.80P  15.80P  15.82P  15.83P  15.84P   
17:30 CST15.77P  15.78P  15.79P  15.81P  15.82P  15.84P  15.82P   
17:45 CST15.77P  15.77P  15.79P  15.81P  15.82P  15.81P  15.83P   
18:00 CST15.76P  15.78P  15.79P  15.80P  15.82P  15.83P  15.84P   
18:15 CST15.77P  15.77P  15.80P  15.80P  15.82P  15.82P  15.83P   
18:30 CST15.76P  15.78P  15.79P  15.80P  15.81P  15.83P  15.84P   
18:45 CST15.77P  15.77P  15.80P  15.81P  15.82P  15.83P  15.84P   
19:00 CST15.77P  15.77P  15.80P  15.80P  15.82P  15.85P  15.85P   
19:15 CST15.77P  15.77P  15.80P  15.80P  15.81P  15.83P  15.83P   
19:30 CST15.77P  15.79P  15.79P  15.80P  15.81P  15.83P  15.84P   
19:45 CST15.77P  15.79P  15.80P  15.80P  15.82P  15.83P  15.83P   
20:00 CST15.77P  15.78P  15.80P  15.81P  15.82P  15.82P  15.83P   
20:15 CST15.77P  15.79P  15.80P  15.81P  15.81P  15.84P  15.83P   
20:30 CST15.77P  15.78P  15.80P  15.80P  15.82P  15.82P  15.84P   
20:45 CST15.77P  15.79P  15.80P  15.80P  15.82P  15.82P  15.84P   
21:00 CST15.77P  15.78P  15.80P  15.81P  15.81P  15.82P  15.83P   
21:15 CST15.77P  15.79P  15.79P  15.80P  15.81P  15.83P  15.83P   
21:30 CST15.77P  15.79P  15.79P  15.80P  15.81P  15.83P  15.83P   
21:45 CST15.77P  15.78P  15.80P  15.80P  15.82P  15.83P  15.84P   
22:00 CST15.77P  15.78P  15.80P  15.80P  15.81P  15.83P  15.84P   
22:15 CST15.77P  15.79P  15.80P  15.80P  15.81P  15.82P  15.84P   
22:30 CST15.77P  15.79P  15.80P  15.80P  15.81P  15.81P  15.83P   
22:45 CST15.77P  15.79P  15.80P  15.81P  15.81P  15.83P  15.83P   
23:00 CST15.77P  15.79P  15.80P  15.80P  15.81P  15.82P  15.84P   
23:15 CST15.77P  15.79P  15.80P  15.81P  15.82P  15.82P  15.84P   
23:30 CST15.77P  15.78P  15.79P  15.81P  15.81P  15.82P  15.83P   
23:45 CST15.77P  15.77P  15.80P  15.81P  15.81P  15.82P  15.83P   
COUNT9696969696969664
MAX15.7715.7915.8115.8115.8315.8515.8515.84
MIN15.7615.7615.7615.7815.7915.8115.8015.81

Explanation
  P  Provisional data subject to revision.